Home   Weather   Mons   Past weeks

Flag for Belgium Past Weather in Mons, Belgium — Yesterday and Last 2 Weeks

Now
27 °F

Ice fog.


Feels Like: 18 °F
Forecast: 22 / 32 °F
Wind: 8 mph from Northeast

Location: Chievres

Current Time: Jan 17, 2017 at 9:51:02 am

Latest Report: Jan 17, 2017 at 9:07 am


Visibility: 2 mi

Pressure: 30.60 "Hg

Humidity: 86%

Dew Point: 23 °F

Location of MonsLocation

Past Weather in Mons — Graph

°F

Mons Temperature Yesterday

Maximum temperature yesterday: 36 °F (at 2:55 pm)
Minimum temperature yesterday: 28 °F (at 10:55 pm)
Average temperature yesterday: 31 °F

High & Low Weather Summary for the Past Weeks

 TemperatureHumidityPressure
High50 °F (Jan 11, 1:55 pm)100% (Jan 2, 8:03 am)30.74 "Hg (Jan 2, 8:03 am)
Low23 °F (Jan 6, 7:55 am)62% (Jan 11, 2:25 pm)28.94 "Hg (Jan 12, 10:55 pm)
Average35 °F90%30.18 "Hg
* Reported Jan 2 8:03 am — Jan 17 8:25 am, Mons, Weather by CustomWeather, © 2017

Note: Actual official high and low records may vary slightly from our data, if they occured in-between our weather recording intervals... More about our weather records

Advertising

Mons Weather History for the Previous 24 Hours

Scroll right to see more
 ConditionsComfort  
Time TempWeatherWind HumidityBarometerVisibility
8:25 am
Tue, Jan 17
27 °FIce fog.7 mph86%30.60 "Hg2 mi
8:06 am27 °FIce fog.6 mph86%30.57 "Hg2 mi
7:55 am27 °FIce fog.8 mph86%30.57 "Hg2 mi
7:25 am27 °FIce fog.8 mph86%30.57 "Hg2 mi
7:15 am27 °FIce fog.7 mph93%30.57 "Hg2 mi
6:55 am27 °FIce fog.6 mph93%30.57 "Hg2 mi
6:37 am27 °FIce fog.7 mph93%30.54 "Hg2 mi
5:55 am28 °FIce fog.8 mph86%30.54 "Hg3 mi
5:25 am27 °FIce fog.7 mph93%30.54 "Hg2 mi
4:55 am28 °FIce fog.8 mph86%30.54 "Hg3 mi
4:25 am28 °FIce fog.9 mph86%30.54 "Hg3 mi
3:55 am28 °FIce fog.8 mph86%30.54 "Hg2 mi
3:25 am28 °FPassing clouds.8 mph86%30.51 "Hg3 mi
2:55 am28 °FPassing clouds.8 mph86%30.51 "Hg3 mi
2:25 am28 °FIce fog.5 mph93%30.51 "Hg2 mi
2:03 am28 °FIce fog.6 mph93%30.51 "Hg2 mi
1:25 am28 °FIce fog.7 mph93%30.51 "Hg2 mi
12:55 am28 °FIce fog.8 mph93%30.51 "Hg2 mi
12:25 am28 °FIce fog.8 mph93%30.51 "Hg2 mi
12:06 am28 °FIce fog.7 mph93%30.51 "Hg2 mi
11:55 pm
Mon, Jan 16
28 °FIce fog.9 mph93%30.48 "Hg2 mi
11:38 pm28 °FIce fog.7 mph93%30.48 "Hg2 mi
11:25 pm28 °FIce fog.7 mph93%30.48 "Hg2 mi
10:55 pm28 °FIce fog.5 mph93%30.48 "Hg2 mi
10:25 pm30 °FChilly.6 mph86%30.48 "Hg3 mi
9:55 pm30 °FChilly.5 mph86%30.45 "Hg4 mi
9:25 pm30 °FChilly.2 mph86%30.45 "Hg3 mi
8:55 pm30 °FChilly.3 mph86%30.45 "Hg4 mi
8:25 pm30 °FChilly.5 mph93%30.42 "Hg4 mi
7:55 pm30 °FChilly.2 mph93%30.42 "Hg4 mi
7:33 pm30 °FChilly.3 mph93%30.42 "Hg4 mi
6:55 pm32 °FChilly.2 mph87%30.39 "Hg6 mi
6:36 pm32 °FChilly.3 mph87%30.39 "Hg4 mi
5:55 pm32 °FPassing clouds.3 mph87%30.39 "Hg4 mi
5:25 pm34 °FPassing clouds.3 mph87%30.36 "Hg5 mi
5:08 pm34 °FFog.1 mph93%30.36 "Hg2 mi
4:55 pm34 °FFog.1 mph93%30.36 "Hg3 mi
4:25 pm36 °FPassing clouds.1 mph87%30.36 "Hg3 mi
3:55 pm36 °FPartly sunny.1 mph87%30.36 "Hg4 mi
3:25 pm36 °FFog.1 mph87%30.36 "Hg3 mi
2:55 pm36 °FFog.2 mph87%30.33 "Hg3 mi
2:25 pm34 °FFog.3 mph93%30.33 "Hg2 mi
1:55 pm34 °FFog.5 mph93%30.33 "Hg2 mi
1:25 pm34 °FFog.3 mph100%30.33 "Hg1 mi
1:13 pm34 °FFog.3 mph100%30.33 "Hg1 mi
12:55 pm34 °FFog.2 mph93%30.33 "Hg1 mi
12:34 pm32 °FFog.2 mph100%30.33 "Hg1 mi
11:55 am32 °FIce fog.3 mph100%30.33 "Hg1 mi
11:25 am32 °FIce fog.2 mph100%30.33 "Hg1 mi
10:25 am30 °FIcy mix. Ice fog.5 mph100%30.33 "Hg0 mi
9:55 am30 °FFog.5 mph100%30.33 "Hg0 mi
Weather by CustomWeather, © 2017

See weather overviewHow to use our weather pages